Location: Unspecified
(0.0000°N, 0.0000°E)
Time: 17:18:43
(UTC+00:00)

Vanguard 2 - All Passes

Search period start: 26 September 2016 00:00
Search period end: 06 October 2016 00:00
Orbit: 554 x 2940 km, 32.9° (Epoch: 26 September)

Date Brightness Start Highest point End Pass type
(mag) Time Alt. Az. Time Alt. Az. Time Alt. Az.
26 Sep - 00:32:47 10° SSW 00:36:59 12° S 00:41:44 10° SSE visible
26 Sep - 02:44:55 10° SSW 02:54:21 17° SSE 03:04:37 10° SE visible
26 Sep - 04:54:58 10° SSW 05:10:42 37° SSE 05:24:54 10° E visible
26 Sep - 07:06:38 10° SW 07:24:38 82° SE 07:37:19 10° ENE daylight
26 Sep - 09:22:23 10° W 09:35:59 38° NW 09:45:05 10° NNE daylight
26 Sep - 18:18:15 10° NNW 18:21:47 26° NE 18:26:15 10° E visible
26 Sep - 20:25:26 10° W 20:30:16 41° SSW 20:37:47 10° SE visible
26 Sep - 22:37:32 10° SW 22:41:53 15° SSW 22:47:20 10° SSE night (unlit)
27 Sep - 00:53:28 10° SSW 00:57:07 11° S 01:01:09 10° SSE visible
27 Sep - 03:03:11 10° SSW 03:14:18 21° SSE 03:26:18 10° ESE visible
27 Sep - 05:13:04 10° SW 05:29:52 47° SSE 05:44:32 10° E visible
27 Sep - 07:25:21 10° WSW 07:43:12 80° NW 07:55:40 10° NE daylight
27 Sep - 09:42:46 10° W 09:54:24 27° NW 10:02:38 10° NNE daylight
27 Sep - 18:35:56 10° NW 18:39:57 50° NE 18:45:26 10° ESE visible
27 Sep - 20:44:30 10° W 20:49:04 26° SSW 20:55:39 10° SSE visible
27 Sep - 22:59:05 10° SSW 23:01:28 11° S 23:04:06 10° S night (unlit)
28 Sep - 01:12:45 10° S 01:17:18 12° S 01:22:21 10° SSE visible
28 Sep - 03:21:15 10° SSW 03:33:59 26° SSE 03:47:31 10° ESE visible
28 Sep - 05:31:15 10° SW 05:48:50 59° SE 06:03:46 10° ENE daylight
28 Sep - 07:44:23 10° WSW 08:01:41 63° NW 08:13:48 10° NE daylight
28 Sep - 10:03:55 10° WNW 10:12:59 20° NW 10:19:53 10° N daylight
28 Sep - 18:54:03 10° WNW 18:58:13 84° SW 19:04:05 10° SE visible
28 Sep - 21:04:11 10° WSW 21:08:04 17° SSW 21:13:07 10° SSE visible
29 Sep - 01:31:02 10° S 01:37:25 14° SSE 01:44:37 10° SE visible
29 Sep - 03:39:13 10° SSW 03:53:22 33° SSE 04:08:10 10° E visible
29 Sep - 05:49:34 10° SW 06:07:38 74° SE 06:22:38 10° ENE daylight
29 Sep - 08:03:50 10° WSW 08:20:09 48° NW 08:31:46 10° NE daylight
29 Sep - 10:26:12 10° WNW 10:31:50 14° NNW 10:36:33 10° N daylight
29 Sep - 17:05:54 10° N 17:08:28 16° NE 17:11:11 10° ENE daylight
29 Sep - 19:12:34 10° WNW 19:16:38 44° SSW 19:22:19 10° SE visible
29 Sep - 21:25:01 10° SSW 21:27:14 12° SSW 21:29:45 10° S visible
30 Sep - 01:48:57 10° SSW 01:57:18 17° SSE 02:06:58 10° ESE visible
30 Sep - 03:57:11 10° SSW 04:12:30 42° SSE 04:28:15 10° E visible
30 Sep - 06:08:05 10° SW 06:26:18 90° NW 06:41:11 10° NE daylight
30 Sep - 08:23:45 10° W 08:38:40 37° NW 08:49:33 10° NNE daylight
30 Sep - 17:23:11 10° NNW 17:26:46 32° NE 17:30:42 10° E daylight
30 Sep - 19:31:33 10° W 19:35:15 25° SSW 19:40:09 10° SSE visible
01 Oct - 02:06:43 10° SSW 02:16:56 22° SSE 02:28:51 10° ESE visible
01 Oct - 04:15:14 10° SW 04:31:26 52° SE 04:47:50 10° ENE visible
01 Oct - 06:26:50 10° WSW 06:44:54 73° NW 06:59:31 10° NE daylight
01 Oct - 08:44:17 10° W 08:57:20 28° NW 09:07:10 10° NNE daylight
01 Oct - 17:41:07 10° NW 17:45:02 70° NE 17:49:31 10° ESE daylight
01 Oct - 19:51:16 10° WSW 19:54:02 15° SSW 19:57:23 10° SSE visible
02 Oct - 02:24:29 10° SSW 02:36:15 28° SSE 02:50:08 10° E visible
02 Oct - 04:33:22 10° SW 04:50:13 66° SE 05:06:59 10° ENE visible
02 Oct - 06:45:56 10° WSW 07:03:30 58° NW 07:17:39 10° NE daylight
02 Oct - 09:05:32 10° WNW 09:16:12 21° NNW 09:24:37 10° NNE daylight
02 Oct - 15:53:04 10° N 15:54:58 13° NNE 15:56:46 10° NE daylight
02 Oct - 17:59:29 10° WNW 18:03:20 54° SW 18:07:50 10° SE daylight
03 Oct - 00:36:36 10° S 00:40:54 12° SSE 00:45:42 10° SE visible
03 Oct - 02:42:16 10° SSW 02:55:18 35° SSE 03:10:45 10° E visible
03 Oct - 04:51:41 10° SW 05:08:54 81° SE 05:25:47 10° ENE visible
03 Oct - 07:05:27 10° WSW 07:22:07 46° NW 07:35:37 10° NNE daylight
03 Oct - 09:27:40 10° WNW 09:35:22 15° NNW 09:41:47 10° N daylight
03 Oct - 16:09:57 10° NNW 16:13:30 24° NNE 16:16:44 10° E daylight
03 Oct - 18:18:21 10° W 18:21:45 27° SSW 18:25:42 10° SSE visible
04 Oct - 00:53:31 10° S 01:00:27 16° SSE 01:08:45 10° ESE visible
04 Oct - 03:00:09 10° SSW 03:14:09 45° SE 03:30:46 10° ENE visible
04 Oct - 05:10:13 10° WSW 05:27:33 83° NW 05:44:19 10° NE visible
04 Oct - 07:25:28 10° W 07:40:53 36° NW 07:53:27 10° NNE daylight
04 Oct - 09:51:05 10° NW 09:54:49 11° NNW 09:58:12 10° N daylight
04 Oct - 16:27:41 10° NW 16:31:54 48° NE 16:35:44 10° ESE daylight
04 Oct - 18:37:59 10° WSW 18:40:19 15° SSW 18:42:54 10° S visible
05 Oct - 01:10:49 10° SSW 01:19:42 21° SSE 01:30:49 10° ESE visible
05 Oct - 03:18:08 10° SW 03:32:51 57° SE 03:50:16 10° ENE visible
05 Oct - 05:29:01 10° WSW 05:46:12 67° NW 06:02:38 10° NE daylight
05 Oct - 07:46:04 10° W 07:59:51 28° NNW 08:11:12 10° NNE daylight
05 Oct - 14:38:56 10° N 14:41:14 13° NNE 14:43:16 10° NE daylight
05 Oct - 16:45:54 10° WNW 16:50:12 78° SW 16:54:11 10° SE daylight
